Location: Newark
(13.8117°N, 3.6025°W)
Time: 10:34:02
(UTC+00:00)

Vanguard 1 Rocket - Visible Passes

Search period start: 20 August 2019 00:00
Search period end: 30 August 2019 00:00
Orbit: 652 x 4224 km, 34.3° (Epoch: 19 August)

Date Brightness Start Highest point End Pass type
(mag) Time Alt. Az. Time Alt. Az. Time Alt. Az.
20 Aug 9.9 05:14:06 10° NNW 05:18:05 16° NNE 05:23:25 10° NE visible
21 Aug 9.7 04:05:18 10° N 04:05:36 10° N 04:05:55 10° N visible
22 Aug 9.8 05:17:14 10° NNW 05:21:34 17° NNE 05:27:36 10° ENE visible
22 Aug 10.3 20:43:18 10° S 20:45:24 13° S 20:45:24 13° S visible
23 Aug 10.3 19:34:19 10° SSE 19:35:39 10° SSE 19:36:55 10° SSE visible
24 Aug 9.8 05:20:09 10° NNW 05:24:54 20° NNE 05:31:52 10° ENE visible
24 Aug 10.0 20:43:51 10° SSW 20:49:07 20° S 20:49:07 20° S visible
25 Aug 9.8 04:11:38 10° N 04:12:51 11° NNE 04:14:09 10° NNE visible
25 Aug 10.0 19:31:44 10° S 19:39:33 16° SSE 19:42:21 15° SE visible
25 Aug 10.5 21:58:25 10° SW 21:59:41 13° SW 21:59:41 13° SW visible
26 Aug 9.7 05:22:57 10° NNW 05:28:04 25° NNE 05:36:01 10° E visible
26 Aug 9.6 20:45:11 10° SSW 20:52:59 30° S 20:52:59 30° S visible
27 Aug 9.8 04:13:58 10° N 04:16:18 12° NNE 04:19:04 10° NE visible
27 Aug 9.6 19:32:04 10° SSW 19:43:16 24° SSE 19:46:17 21° SE visible
27 Aug 10.3 22:00:53 10° SW 22:03:37 18° SW 22:03:37 18° SW visible
28 Aug 9.5 05:25:44 10° NNW 05:31:06 32° NNE 05:39:56 10° E visible
28 Aug 9.1 20:46:57 10° SW 20:56:57 43° S 20:56:57 43° S visible
29 Aug 9.6 04:16:25 10° N 04:19:37 16° NNE 04:23:41 10° ENE visible
29 Aug 9.2 19:33:06 10° SSW 19:46:48 34° SSE 19:50:17 28° ESE visible
29 Aug 10.1 22:03:42 10° WSW 22:07:38 22° WSW 22:07:38 22° WSW visible
